GEFSSE_500_meanwind_000.txt.gz
Wind_Speed
17 19 21 24 20 22 22 18 15 10 7 5 4 4 5 7 8 9 10 10 11 12 12 12 12 12 12 14 15 15 15 16 17 18 18 19 19 19 20 20 19 18 18
22 20 19 19 15 19 20 17 14 9 6 5 5 5 4 6 8 10 11 12 12 12 13 12 12 13 14 15 15 15 17 18 18 19 20 20 20 19 19 20 19 19 19
25 21 25 26 18 20 20 18 14 9 8 8 8 9 8 7 9 10 11 11 12 13 12 13 12 13 14 15 16 17 18 19 19 20 21 22 22 22 21 20 18 18 18
25 24 24 25 17 24 27 21 16 11 11 11 12 12 13 13 14 14 14 14 13 13 13 15 15 15 15 16 17 18 19 21 22 22 21 22 23 23 23 21 20 20 19
18 18 16 12 15 27 32 23 18 15 15 15 17 17 19 20 19 18 17 15 15 15 16 17 19 18 17 19 21 20 20 23 25 24 23 22 24 25 25 23 22 23 21
11 6 3 9 17 25 28 25 21 19 19 20 22 21 24 23 26 22 20 18 17 20 22 21 21 18 17 21 23 24 26 26 26 28 28 25 24 25 26 27 25 25 24
6 5 6 4 15 24 26 28 25 22 22 24 24 26 25 24 26 16 19 18 19 23 23 25 25 18 19 23 23 25 28 32 33 30 33 33 29 27 26 27 28 27 25
3 2 1 3 6 14 10 17 22 22 27 25 23 27 27 27 29 22 21 22 22 23 23 27 24 24 28 31 32 32 32 36 37 36 38 37 33 32 30 29 30 29 25
8 5 8 9 10 11 12 16 18 21 23 24 27 28 27 24 26 26 24 26 29 28 29 34 32 30 34 39 38 38 37 39 39 37 40 40 37 35 36 34 32 30 28
9 7 11 14 15 15 18 21 23 24 25 27 28 29 28 27 30 30 28 32 35 33 33 38 37 35 37 40 42 41 41 41 39 40 43 43 40 39 38 38 36 34 33
9 10 11 13 15 18 20 22 25 28 28 28 28 28 29 28 29 30 31 35 38 38 38 40 39 39 39 40 43 44 43 42 41 41 43 42 41 41 39 41 41 38 37
11 12 13 13 16 19 21 22 25 26 27 27 27 26 26 26 27 28 30 33 35 37 36 36 36 38 38 39 40 40 41 43 43 43 44 45 45 44 43 43 42 41 39
12 11 12 13 15 16 19 21 19 20 22 23 23 21 22 23 24 26 28 30 32 34 35 35 35 36 36 36 38 39 40 42 42 44 44 45 45 45 45 45 43 41 41
12 12 12 11 10 11 13 15 16 16 18 19 20 21 23 24 24 26 28 29 31 33 35 35 36 37 38 39 40 41 41 42 43 44 45 45 45 45 45 46 45 44 43
12 14 14 13 13 14 15 16 18 19 20 21 23 24 25 27 28 29 31 33 35 36 38 39 40 41 42 43 43 45 45 46 46 47 47 48 48 47 46 47 46 45 44
16 17 17 17 17 19 20 20 21 22 22 23 24 26 27 28 28 29 31 33 36 38 39 41 42 43 44 45 45 47 48 48 48 49 49 49 48 48 47 47 46 46 46
18 19 20 20 20 21 22 22 22 22 23 25 27 28 30 31 32 33 34 35 36 39 40 42 44 45 46 46 46 47 47 47 48 49 49 48 47 47 46 45 45 45 45
18 20 21 23 23 23 23 24 24 24 24 25 28 30 31 32 34 36 37 39 39 41 43 45 47 47 48 48 48 48 49 49 49 50 49 48 48 47 46 45 44 44 45
22 23 23 25 25 24 24 24 24 24 24 26 30 33 35 36 39 41 43 45 46 48 49 51 53 54 55 55 56 55 53 52 51 51 50 49 48 46 45 45 46 46 46
27 27 28 28 24 24 25 27 29 31 31 33 38 43 46 48 48 49 52 56 57 56 55 56 57 59 60 63 63 61 58 56 56 55 52 48 48 49 50 50 50 51 51
29 29 29 31 28 29 30 32 34 38 42 46 50 53 55 56 55 53 54 57 56 52 49 48 49 50 51 54 57 59 59 59 57 53 53 51 54 57 58 59 59 59 60
31 33 33 32 33 35 37 39 41 46 49 51 52 56 58 57 56 54 53 53 52 49 49 51 56 58 59 61 61 60 58 57 60 59 58 58 60 63 65 68 68 68 69
34 35 36 36 37 40 44 47 49 52 53 56 58 58 57 59 61 60 56 58 61 63 68 75 75 78 78 74 70 69 70 71 74 71 70 67 69 72 72 74 73 72 75
35 36 38 39 42 46 51 52 53 55 57 59 58 59 62 63 65 67 69 71 75 77 80 84 86 82 81 83 83 81 82 84 86 86 86 89 90 86 80 76 75 77 79
35 37 39 43 46 48 51 54 57 56 58 62 65 68 69 69 73 78 78 81 85 87 89 88 86 88 85 85 84 83 83 84 85 93 95 96 96 92 85 79 73 76 78
38 39 41 45 47 50 55 60 63 65 68 71 73 76 77 79 83 85 86 86 84 83 84 84 84 85 84 85 83 81 82 82 81 83 87 87 87 84 82 77 72 72 70

GEFSSE_500_meanwind_006.txt.gz
Wind_Speed
13 14 14 14 15 13 13 17 17 16 16 16 15 14 13 13 12 12 11 11 11 11 11 12 12 11 11 11 12 12 12 12 12 13 13 14 15 15 15 14 14 13 13
17 19 18 16 16 16 16 19 19 19 18 18 16 15 15 15 15 14 14 14 14 15 16 15 14 13 12 12 12 12 12 11 11 12 12 12 13 14 15 15 15 15 15
19 19 18 15 15 16 18 20 21 20 20 19 19 18 17 16 16 15 15 15 16 17 18 18 17 16 15 14 13 13 13 12 12 12 13 14 13 13 14 15 16 16 16
18 16 15 14 14 15 19 22 23 22 21 21 20 20 20 19 18 18 18 19 20 21 21 21 19 19 18 17 15 15 15 15 14 14 14 15 15 16 17 19 19 18 18
14 14 13 13 14 16 19 23 25 24 23 23 22 22 22 22 22 23 24 24 25 25 25 25 24 23 22 20 19 19 17 16 17 17 16 15 15 17 19 21 23 22 21
13 13 11 11 14 17 19 23 26 26 26 26 26 25 25 24 25 27 27 29 30 30 32 32 31 28 25 24 23 22 19 18 19 20 20 20 19 19 22 24 26 26 25
10 10 9 10 14 18 19 23 26 28 28 28 29 28 29 28 28 30 31 32 32 33 34 33 34 31 28 27 27 25 22 21 22 24 24 24 23 23 25 27 28 28 29
7 8 8 10 12 14 16 20 24 26 29 28 27 25 26 27 28 30 30 29 28 27 26 27 28 28 29 27 25 24 23 24 26 27 27 27 27 28 29 31 31 31 30
6 7 11 13 14 15 16 17 18 18 20 22 22 24 27 29 29 27 25 25 26 24 24 25 25 25 25 26 26 25 25 27 29 31 32 32 32 32 33 34 35 35 34
7 9 11 14 16 17 19 20 21 22 22 23 24 25 27 29 29 30 29 28 26 25 25 25 26 28 28 28 29 29 29 31 34 36 37 36 37 37 37 38 38 38 38
10 11 13 15 17 19 21 22 23 25 26 26 26 26 27 28 28 28 28 28 28 28 28 27 28 29 30 30 31 32 34 35 36 38 40 40 40 39 39 40 40 41 41
12 12 14 16 18 20 22 24 25 28 29 29 29 28 28 28 28 27 27 28 29 29 29 30 30 31 32 32 32 34 36 37 37 38 40 41 41 40 40 41 42 42 43
13 14 15 17 19 21 22 24 26 28 28 28 28 27 27 28 28 27 27 28 29 30 30 31 32 33 34 34 34 35 37 39 39 40 40 41 42 41 42 42 43 44 44
14 15 16 18 19 20 22 24 26 28 28 27 27 28 29 30 30 30 31 31 32 33 34 35 36 37 38 38 38 39 40 41 42 43 44 44 45 45 45 45 45 46 45
17 18 20 21 22 22 24 25 27 28 29 30 30 32 32 34 34 34 34 33 34 35 36 36 38 39 40 41 42 42 42 43 44 45 46 46 47 47 47 48 48 49 49
22 22 22 23 23 23 24 26 26 28 30 32 34 35 36 37 39 39 39 39 40 40 40 40 41 42 43 43 43 44 45 46 47 48 48 49 49 49 49 50 50 50 51
22 22 21 21 22 24 25 27 28 30 32 34 36 37 39 41 42 44 45 46 46 46 46 46 47 48 49 50 51 50 51 51 52 52 53 53 53 53 52 52 52 52 52
22 22 21 20 22 25 28 29 30 32 33 35 37 37 38 39 42 44 45 47 48 50 52 53 55 56 57 57 58 59 59 60 60 60 61 61 60 60 59 59 57 57 57
25 25 24 22 24 27 29 29 29 30 33 34 35 36 38 41 43 45 47 49 52 55 57 58 58 59 60 61 62 63 63 63 63 64 64 65 66 67 65 67 66 64 63
30 30 29 28 28 31 30 28 29 30 32 33 35 39 42 45 47 49 51 53 55 57 57 58 58 60 62 63 64 64 64 64 64 64 63 63 65 65 64 66 69 70 70
34 34 33 32 31 35 34 29 30 31 33 35 39 42 45 48 51 52 55 58 59 61 63 65 67 69 70 70 71 70 69 69 70 70 70 69 69 68 66 65 65 66 68
35 36 36 35 35 36 36 35 36 37 38 41 43 45 47 50 53 58 62 65 68 71 74 76 76 77 79 80 81 83 82 80 79 80 81 79 77 76 75 75 74 70 66
35 37 38 38 38 38 39 42 42 44 47 47 47 48 50 55 59 63 66 69 72 75 79 80 81 83 83 84 86 87 89 88 88 85 84 84 83 82 80 78 77 76 74
36 38 39 40 42 43 45 47 48 51 51 51 52 55 59 62 66 69 71 74 77 80 82 83 84 84 83 82 80 80 81 81 81 80 78 76 74 73 72 70 68 69 71
39 40 41 43 45 46 47 49 51 53 54 56 59 63 66 69 71 74 76 79 80 81 80 79 77 76 76 75 72 71 71 69 68 69 67 64 64 63 61 59 58 58 60
41 42 43 44 46 47 49 51 53 56 59 62 65 68 71 74 76 78 80 82 81 79 77 74 71 70 69 68 66 66 67 67 65 65 65 61 60 60 59 57 54 53 52

GEFSSE_500_meanwind_012.txt.gz
Wind_Speed
18 19 19 18 18 18 20 21 21 21 22 22 21 20 19 18 18 18 17 17 16 16 16 16 16 16 16 16 17 16 16 17 17 17 17 16 16 16 15 14 13 12 13
23 23 24 23 22 21 21 22 23 22 22 22 22 22 21 20 19 19 19 19 19 18 18 17 17 17 17 17 17 18 19 20 20 20 19 18 17 16 16 15 14 14 15
25 25 25 24 24 23 22 22 23 22 22 22 22 22 22 22 22 21 21 21 20 20 19 19 19 18 18 19 20 21 22 23 23 22 21 20 18 17 16 16 15 15 16
25 24 23 22 21 21 21 22 22 22 22 22 23 23 23 23 24 24 24 23 23 22 21 21 22 22 22 23 24 25 26 26 26 26 24 22 20 19 18 17 16 16 16
22 21 19 19 19 20 21 21 21 21 22 23 24 25 25 25 25 26 26 26 26 26 26 26 26 27 27 28 29 29 30 30 30 29 28 24 23 21 19 19 18 18 18
17 17 17 18 19 20 19 20 20 22 23 24 26 27 27 28 27 28 29 29 30 31 31 31 32 33 33 33 34 36 36 35 34 34 31 28 26 25 24 23 21 20 20
14 15 15 17 18 18 19 19 19 21 22 24 26 28 29 30 30 31 31 32 33 33 34 34 34 35 37 37 38 40 41 41 40 39 37 33 32 30 27 26 24 23 23
15 16 15 16 16 17 18 18 18 18 19 21 24 25 26 28 29 29 31 33 33 32 32 31 31 31 30 33 35 38 40 41 42 44 42 37 36 34 29 25 25 25 26
15 16 15 15 16 18 19 20 21 20 20 21 23 25 26 27 27 27 28 29 31 31 31 30 29 29 31 31 31 32 31 33 34 33 34 35 34 29 26 26 27 28 30
17 15 14 14 16 18 19 20 21 22 23 24 25 27 27 28 29 29 29 28 29 29 29 30 30 30 30 31 32 33 32 32 31 30 27 27 27 26 26 28 30 31 32
16 16 15 14 16 17 18 20 21 23 24 25 27 27 28 29 29 29 28 28 28 28 29 29 29 29 29 30 32 33 34 34 34 34 33 31 30 30 31 32 32 33 33
16 18 15 15 17 18 20 21 23 24 26 27 28 29 29 28 28 28 27 27 27 28 29 30 30 31 31 32 32 33 33 34 34 35 34 34 34 34 34 35 35 35 35
20 22 22 21 22 21 22 24 25 26 28 30 31 31 32 31 30 29 29 29 29 30 31 32 33 34 35 35 36 36 36 37 37 38 37 37 37 38 38 39 39 39 39
25 26 25 24 25 26 26 26 28 29 30 32 33 34 34 34 34 33 32 31 31 31 32 33 33 35 36 37 37 38 39 39 40 41 41 40 40 40 41 42 43 43 43
27 28 27 26 27 28 29 28 30 31 32 33 34 35 35 36 36 36 36 35 35 35 35 35 36 37 38 40 40 42 42 43 44 45 46 47 46 46 46 46 45 45 45
28 28 27 26 27 27 27 28 29 32 34 35 37 38 39 38 38 37 36 36 37 39 40 41 42 42 43 43 45 46 47 48 49 49 50 51 52 52 52 53 53 52 51
30 30 27 23 24 25 27 28 30 33 35 37 40 42 43 42 40 38 37 38 39 41 44 46 48 49 49 50 51 51 50 50 50 51 51 52 53 54 55 56 57 58 58
31 27 21 18 21 26 28 31 33 35 37 39 41 43 44 44 41 39 40 41 43 45 48 50 51 52 52 53 54 55 56 57 57 58 60 61 62 62 62 62 62 62 61
32 22 17 24 24 27 29 31 31 33 35 39 41 43 44 44 43 43 44 45 47 49 52 53 53 54 55 56 58 59 60 62 63 65 67 69 70 72 72 72 71 71 69
35 34 41 39 36 36 36 35 35 35 37 39 42 44 45 45 46 48 48 49 51 52 53 54 55 57 59 62 63 64 65 67 68 70 73 75 77 78 79 79 79 78 77
43 46 47 45 45 45 44 43 41 41 42 43 44 45 46 48 50 49 50 51 52 54 56 58 60 62 65 66 68 69 70 72 74 76 78 80 81 81 81 80 80 80 80
43 46 48 50 51 50 49 48 48 48 49 49 50 49 49 51 51 51 53 55 57 58 60 63 66 67 68 70 73 76 77 77 78 80 80 80 78 77 75 73 73 74 74
42 45 48 50 52 53 52 52 52 53 54 54 55 54 53 52 53 56 59 61 62 64 65 67 70 72 73 74 78 81 84 84 82 78 75 72 70 67 66 65 66 66 66
42 44 46 48 50 51 53 54 55 55 56 56 57 57 58 60 63 66 68 69 70 71 72 73 75 78 80 81 82 84 85 83 78 72 64 62 61 60 60 60 60 61 61
42 43 45 47 48 49 51 52 53 53 55 56 58 60 63 66 70 73 75 77 77 78 79 80 82 83 85 86 84 82 77 71 65 63 58 55 54 54 54 54 54 55 56
41 42 43 44 45 45 46 48 50 52 55 58 61 64 67 70 74 77 80 82 83 85 86 86 86 86 85 82 75 67 60 57 55 55 54 51 49 48 48 48 48 49 50

GEFSSE_500_meanwind_018.txt.gz
Wind_Speed
15 16 17 17 18 19 19 20 20 20 21 22 22 22 22 22 21 20 20 20 19 19 18 18 18 18 19 19 20 20 20 19 19 20 20 21 21 21 21 21 20 19 19
21 20 19 19 20 20 21 22 22 21 21 22 22 23 23 22 22 22 22 22 22 21 21 20 20 20 21 22 22 23 22 22 22 23 24 25 25 25 25 24 23 23 22
19 18 19 20 20 20 20 21 21 21 21 21 21 21 22 22 22 22 22 22 22 23 23 23 23 23 23 24 25 26 26 26 25 26 27 28 28 28 28 27 26 26 25
16 17 18 18 18 17 17 17 18 18 19 18 19 20 21 22 23 23 23 23 24 24 24 25 25 26 26 28 29 30 30 30 30 30 31 31 32 31 31 30 29 28 27
14 15 15 15 15 15 15 15 16 16 16 16 17 19 21 22 23 24 25 25 26 27 28 29 29 30 31 32 33 33 34 34 34 34 34 35 36 35 35 34 34 33 30
12 13 13 14 14 14 14 15 15 14 14 15 16 18 20 22 24 25 27 28 29 31 32 33 33 34 35 37 38 38 38 39 38 38 38 39 39 40 39 38 38 37 35
12 13 14 14 14 14 14 14 14 14 14 14 15 16 18 20 23 25 26 28 29 31 32 33 34 35 37 38 39 41 43 41 40 40 40 40 42 43 43 42 40 39 37
14 14 14 13 13 13 14 14 14 15 15 15 15 16 16 17 19 21 23 24 25 27 27 28 29 30 29 29 30 31 33 34 33 32 32 33 35 38 42 44 43 42 40
17 17 15 13 12 12 12 13 15 16 16 16 17 17 17 17 18 19 20 21 21 22 23 23 24 25 25 26 26 27 27 27 27 28 30 30 30 30 33 36 37 40 41
18 17 14 12 12 12 12 13 15 17 18 18 18 19 19 19 19 20 20 21 21 22 22 23 24 24 24 25 25 26 26 26 27 27 28 28 28 27 26 27 29 30 32
18 17 15 13 13 14 14 15 16 19 20 21 21 21 22 22 22 22 22 23 24 24 25 25 26 26 26 26 27 28 28 29 29 29 29 29 29 28 27 27 27 28 28
17 16 17 17 16 15 16 17 19 21 23 23 23 23 24 24 25 25 25 26 26 27 27 27 28 29 29 29 30 30 30 30 30 30 31 31 31 31 30 29 29 30 30
17 19 21 20 17 16 16 19 21 22 23 23 23 23 24 25 26 27 27 28 28 29 29 29 29 30 31 31 31 32 32 32 33 34 34 34 35 35 35 34 34 34 34
19 21 21 20 16 13 14 17 19 20 21 22 23 24 26 27 29 30 31 31 30 30 32 33 32 32 33 33 33 34 34 36 36 37 38 38 39 40 40 40 40 40 39
21 22 22 19 16 13 14 16 18 21 23 25 26 28 29 31 32 32 33 32 32 33 34 35 36 36 36 37 37 38 39 40 41 41 42 42 43 44 44 44 44 45 45
25 24 21 20 23 20 18 20 21 23 24 26 28 29 31 32 34 34 35 35 35 35 36 38 39 41 42 43 44 44 45 45 46 46 46 46 46 47 47 47 48 48 48
29 27 25 29 28 26 26 25 25 26 26 27 30 31 32 34 36 38 39 40 40 41 41 41 43 45 47 47 48 49 50 50 50 50 50 50 50 50 50 51 51 51 52
32 33 35 34 36 34 32 30 32 31 30 31 33 34 34 36 38 39 41 43 44 45 46 47 48 49 50 51 52 53 53 54 54 55 56 56 56 56 57 57 57 56 56
35 35 37 38 39 37 35 34 34 33 33 34 35 36 37 38 40 41 42 44 45 46 47 49 50 51 53 55 56 57 58 59 60 61 61 62 63 63 63 63 63 63 62
34 36 39 40 39 38 37 36 35 35 35 36 37 37 38 40 41 42 43 44 46 48 50 52 53 55 58 60 61 62 64 65 66 67 67 68 68 68 68 68 68 69 68
35 37 39 39 39 39 39 38 38 38 38 39 40 40 41 42 43 45 46 48 51 53 55 56 59 62 64 67 68 70 71 71 72 72 73 73 73 73 73 74 74 74 74
35 37 38 38 39 39 39 39 40 40 41 42 43 43 44 46 47 49 51 53 55 58 61 63 66 68 71 72 74 77 77 76 77 78 78 78 78 79 79 79 79 79 78
34 36 37 37 38 39 40 41 42 43 44 44 45 47 48 50 52 54 56 57 60 62 64 66 67 69 70 72 74 77 77 77 77 77 79 79 80 80 79 79 78 77 75
34 35 35 37 39 40 42 43 45 46 47 48 50 51 53 55 57 59 60 62 64 65 66 66 65 65 65 66 67 68 69 68 67 65 65 66 66 66 66 66 65 65 63
34 35 36 38 40 43 45 47 48 50 51 53 55 56 58 60 61 63 64 65 65 65 63 62 61 60 59 58 57 56 56 55 53 50 48 46 47 48 48 48 49 50 50
37 38 38 40 43 46 48 50 52 53 55 56 58 59 61 62 64 64 64 64 63 60 58 56 56 55 54 54 53 53 51 48 46 44 43 41 41 41 42 42 43 44 44

GEFSSE_500_meanwind_024.txt.gz
Wind_Speed
16 18 18 19 20 20 19 19 18 17 16 15 14 14 14 14 14 14 15 15 15 16 17 17 18 19 19 18 18 19 19 19 19 20 21 22 22 22 22 22 23 23 22
18 18 17 17 17 17 17 16 16 15 15 16 15 15 15 15 15 15 15 16 17 17 18 19 19 20 21 21 22 22 22 23 23 23 24 24 25 26 26 26 26 26 26
17 16 15 15 14 14 13 12 12 12 13 13 14 14 14 15 16 16 17 17 18 19 19 20 20 21 22 23 23 24 25 25 26 27 27 28 29 29 30 30 30 30 29
13 13 12 11 10 9 9 9 8 9 10 11 12 12 13 14 15 16 17 18 20 21 21 22 22 23 24 24 25 26 27 29 30 30 31 32 32 33 33 33 33 33 33
10 10 9 9 8 7 7 7 7 7 7 8 9 11 12 13 14 16 17 19 20 22 23 24 24 25 26 27 28 29 31 32 33 34 35 36 37 36 36 36 37 37 36
8 8 9 9 9 8 7 6 6 5 5 6 7 8 9 11 12 14 16 18 20 21 23 25 26 26 27 28 29 30 32 33 35 36 38 39 39 39 39 39 39 38 38
9 10 10 10 9 8 7 6 5 5 4 4 5 6 7 9 10 12 14 16 17 19 21 22 23 25 26 27 28 29 30 32 33 34 35 36 37 37 37 37 38 38 38
11 11 11 10 9 8 7 7 6 6 5 5 5 6 7 8 9 11 12 13 15 16 18 19 21 23 24 25 26 27 27 29 30 31 32 32 33 34 34 33 34 34 34
14 12 12 11 9 9 8 8 8 8 8 9 9 9 10 10 11 12 13 13 14 15 17 18 20 22 23 25 26 27 28 29 30 30 31 31 32 32 33 33 34 34 33
14 12 12 10 10 10 10 10 10 10 11 12 12 13 13 13 14 14 15 15 16 17 18 19 21 22 24 25 27 28 29 30 31 32 33 33 33 33 33 34 34 34 34
15 13 11 11 10 10 10 10 11 11 12 14 14 14 15 15 16 16 17 18 19 19 20 21 22 23 25 26 28 30 31 32 33 34 35 35 35 35 35 35 35 35 35
17 15 12 11 10 10 10 11 11 12 13 14 15 16 17 18 19 19 20 21 21 22 22 23 24 25 26 27 28 30 32 33 35 36 37 37 37 37 37 37 37 38 38
18 18 16 13 13 11 11 11 12 13 15 16 17 18 19 20 21 22 22 23 24 25 25 26 27 28 29 30 31 32 33 35 37 38 39 40 40 40 40 40 40 41 41
19 18 17 15 15 14 12 11 12 14 16 19 20 21 22 23 23 24 25 26 27 28 29 30 31 32 33 34 35 36 37 38 39 40 42 43 44 44 45 45 44 44 44
19 19 17 15 15 15 13 12 13 16 18 20 22 24 24 25 25 26 27 28 29 30 31 32 33 35 36 38 38 39 40 41 42 44 46 47 48 48 49 49 49 48 48
20 20 19 18 18 16 15 14 15 18 20 22 23 24 24 25 25 26 27 28 29 30 32 33 35 37 38 39 40 41 42 43 44 46 48 49 50 51 51 52 52 52 52
23 21 20 20 19 19 18 18 19 19 21 22 22 22 23 23 24 26 28 30 31 33 35 36 38 39 41 42 43 43 45 46 48 49 51 52 52 53 55 55 56 56 57
24 22 22 21 21 22 21 20 19 19 20 21 21 22 23 24 26 28 30 32 34 36 38 40 41 43 44 46 47 48 49 51 52 53 55 56 57 58 58 59 60 61 62
26 24 23 23 23 23 22 21 21 21 22 23 24 25 26 28 30 32 34 36 38 40 42 44 45 47 48 49 51 52 54 56 57 58 59 60 62 63 64 65 66 66 67
26 25 25 25 25 25 24 24 24 25 26 28 29 30 31 33 34 36 38 41 43 45 47 48 50 51 52 53 54 55 57 58 60 61 62 62 63 65 66 67 69 70 70
26 26 27 27 28 29 28 28 28 30 31 33 34 35 36 38 39 41 43 46 48 49 51 52 53 54 55 56 57 57 57 59 60 61 60 59 60 61 63 64 65 66 67
27 28 30 31 32 33 33 33 34 35 36 37 38 39 40 42 44 46 48 50 52 53 54 55 56 57 57 58 58 57 55 55 55 54 54 55 55 56 58 59 60 61 61
29 31 33 35 36 38 39 39 40 40 40 40 41 43 44 45 48 50 52 54 55 56 56 56 57 57 57 56 55 53 51 49 47 47 48 50 52 54 56 57 58 59 59
32 34 36 39 41 42 43 43 44 43 42 42 44 45 46 48 51 54 57 59 59 58 58 57 57 56 55 53 51 48 47 46 45 44 44 47 49 52 54 55 57 57 57
35 37 39 42 43 44 45 46 46 45 44 45 46 47 49 52 55 59 61 62 61 60 59 58 56 54 51 48 45 44 43 44 46 48 48 49 50 53 54 55 55 56 56
37 39 40 43 44 45 46 46 45 46 46 47 48 50 53 56 59 63 64 63 62 60 58 56 53 49 45 43 42 43 44 46 48 51 52 53 54 55 56 57 56 54 53

GEFSSE_500_meanwind_030.txt.gz
Wind_Speed
12 12 13 13 12 12 12 13 15 16 16 16 15 13 12 11 10 10 10 10 10 11 11 11 12 12 12 13 14 15 16 17 18 18 19 19 20 20 20 21 21 21 22
10 10 10 11 11 11 11 12 13 14 14 15 14 14 13 12 11 10 10 10 11 11 11 12 12 12 12 13 14 16 17 19 19 20 21 21 22 22 23 23 24 24 25
8 7 8 8 9 9 9 10 10 11 11 12 12 12 12 12 11 11 10 11 11 11 12 12 13 13 13 14 15 16 17 19 20 21 22 23 24 24 25 25 26 27 27
7 6 7 7 8 8 8 8 8 8 9 9 10 10 11 11 11 11 11 12 12 13 13 13 14 14 15 15 16 17 18 20 21 23 24 25 25 26 27 27 28 29 29
6 6 6 6 7 8 8 7 6 6 6 7 8 8 9 10 10 11 12 12 13 13 14 15 15 16 17 18 19 19 20 21 22 23 24 26 26 27 27 28 29 29 30
7 6 6 6 7 6 6 5 4 4 4 5 6 7 8 8 9 10 11 12 13 14 15 16 16 17 18 19 20 20 21 22 22 23 24 25 26 26 27 27 27 27 28
7 6 7 7 7 6 5 4 4 3 3 4 4 5 6 7 9 10 11 12 13 14 15 16 17 17 18 19 19 20 21 22 23 23 24 25 25 26 26 26 26 26 27
6 7 7 6 6 5 4 4 4 4 4 4 4 5 6 8 9 10 12 13 14 14 15 16 17 17 18 18 19 20 21 23 24 25 25 26 27 27 27 27 28 28 28
6 6 6 5 5 4 4 5 5 5 5 5 6 6 8 9 10 12 13 13 14 15 16 17 18 18 19 20 21 22 23 25 26 27 28 29 29 30 30 30 30 31 30
8 7 6 6 5 5 5 6 6 6 6 7 7 8 9 10 11 12 13 14 15 16 17 18 19 20 21 21 23 24 25 27 28 30 31 31 32 33 33 33 33 33 34
9 7 6 5 6 5 6 6 6 7 8 8 9 10 11 12 12 13 14 15 16 17 18 19 20 21 22 23 24 25 26 28 29 31 31 32 34 35 36 36 36 36 36
10 9 8 7 6 6 6 7 7 8 9 10 11 12 13 14 14 15 16 17 17 18 19 20 21 21 22 22 23 25 26 28 30 31 32 33 34 36 37 38 39 39 39
11 10 10 9 8 8 7 8 8 9 10 11 12 13 14 15 16 17 17 18 18 19 19 19 20 21 22 23 24 26 27 29 31 33 34 35 37 38 39 41 42 42 42
11 11 11 10 10 10 8 8 9 9 10 12 13 14 15 16 17 17 17 17 17 18 19 20 21 22 23 25 27 29 31 32 34 36 37 39 40 42 43 44 45 45 45
12 12 12 12 12 11 10 9 9 9 11 12 13 14 15 15 15 15 16 17 17 18 20 21 22 24 26 28 31 33 35 37 39 40 42 43 44 46 47 47 48 48 48
14 14 14 13 13 12 11 10 10 10 11 12 13 13 14 15 15 16 16 17 18 20 21 22 24 27 29 32 35 37 40 42 44 45 47 48 49 50 51 52 52 52 52
17 16 16 14 14 13 12 11 11 12 12 13 14 15 16 16 17 17 18 19 20 21 23 25 27 30 32 35 37 40 42 45 47 49 52 54 55 55 55 56 56 56 56
20 19 18 17 16 15 14 13 13 13 14 15 17 18 19 20 20 21 21 22 23 25 26 28 30 33 35 38 41 43 46 48 50 53 55 57 59 60 60 60 59 60 60
23 22 21 19 18 18 17 16 16 16 17 19 20 22 23 23 24 25 26 27 28 29 30 32 34 37 40 42 45 47 49 51 53 56 58 60 61 62 63 63 63 62 63
25 25 24 23 22 21 20 19 19 20 21 22 24 25 26 27 28 29 30 31 32 34 35 37 40 42 44 47 49 51 53 55 56 58 60 62 63 63 64 64 63 63 63
29 29 27 26 25 25 24 23 23 24 25 26 27 28 29 31 32 33 34 35 36 38 40 42 44 46 49 51 53 55 56 58 59 60 61 63 63 63 62 61 60 59 58
32 33 32 30 30 29 28 27 27 27 28 29 30 31 32 34 35 36 37 39 40 42 43 45 48 50 53 56 57 58 58 59 61 61 61 60 60 60 58 56 54 53 52
35 35 35 35 35 33 31 31 31 32 33 32 33 34 36 37 38 39 40 42 44 45 47 49 52 54 57 59 60 60 60 60 61 60 59 57 54 53 52 50 49 48 48
37 37 38 38 37 36 34 34 34 35 35 36 38 39 40 41 42 44 45 46 48 50 51 53 55 57 59 61 61 61 61 61 60 58 56 52 49 48 48 47 48 49 49
39 40 40 40 40 38 37 37 38 38 39 40 42 44 46 46 47 49 50 50 51 52 54 56 58 60 61 61 61 61 61 60 58 55 52 50 49 49 49 49 51 52 54
41 41 42 42 41 40 40 40 40 41 42 45 47 49 50 50 51 53 53 53 53 54 56 58 60 60 61 61 61 60 59 57 55 52 51 51 51 51 52 54 55 57 58

GEFSSE_500_meanwind_036.txt.gz
Wind_Speed
13 16 16 16 16 16 16 16 16 17 17 17 17 18 18 18 18 17 16 15 15 14 14 14 14 14 14 15 15 15 15 16 16 16 17 17 17 17 17 17 17 17 17
14 14 15 15 15 15 14 14 14 14 15 15 16 17 18 18 18 17 17 16 15 15 15 15 15 15 16 16 17 17 17 18 18 19 19 20 20 20 20 20 20 20 20
13 11 12 11 11 11 11 11 11 11 11 12 13 15 16 17 17 17 17 16 16 15 16 16 15 15 16 17 17 18 19 19 20 21 21 21 22 22 22 22 22 22 22
9 9 8 8 8 8 8 9 9 9 9 10 11 12 14 15 16 16 16 16 15 16 16 16 16 16 16 17 17 18 19 20 21 21 22 22 22 23 23 24 24 24 24
7 7 7 7 7 8 8 9 9 9 9 9 10 10 11 12 13 14 14 14 14 15 15 15 15 16 16 17 18 19 19 20 21 21 22 21 21 22 23 23 24 24 24
6 7 8 8 8 9 9 9 9 9 9 9 9 9 10 10 11 11 11 12 12 13 13 14 15 15 16 17 17 18 19 20 20 20 21 19 19 21 21 21 21 22 22
6 7 8 9 9 10 10 10 9 9 9 9 9 9 9 10 10 10 10 11 11 12 12 13 14 15 15 16 16 17 18 19 19 19 19 19 19 20 20 20 20 21 21
7 7 8 9 10 10 10 10 9 9 9 10 10 10 11 11 11 11 11 11 12 12 13 13 14 15 15 16 17 17 18 18 19 19 19 18 20 20 21 22 22 22 22
7 7 8 9 10 11 11 10 10 10 10 11 11 11 12 12 12 12 13 13 13 13 14 15 15 16 17 17 18 18 19 20 21 21 19 19 21 22 22 23 24 24 25
8 7 8 8 9 10 10 10 10 11 11 12 12 12 12 13 13 13 14 14 14 14 15 15 16 17 17 18 19 20 20 21 22 21 19 20 22 23 24 24 25 25 26
10 9 8 9 10 10 10 11 11 12 12 12 12 12 13 13 14 14 14 14 15 15 16 16 17 17 18 18 19 20 20 22 22 21 20 21 23 24 25 26 26 27 28
12 11 10 11 11 11 11 11 12 12 12 12 13 13 14 14 14 14 14 15 15 16 16 17 17 17 17 17 18 19 20 22 23 22 21 23 25 26 27 28 29 30 31
14 14 13 13 12 12 12 13 13 13 13 13 14 14 14 14 14 14 14 15 16 16 16 17 16 16 17 17 18 20 21 23 25 24 23 25 27 29 31 32 33 34 36
14 15 15 15 15 15 15 15 15 14 14 14 15 15 15 15 15 15 15 15 16 16 17 17 17 17 19 20 20 21 23 24 26 28 28 28 30 32 34 35 37 38 40
16 16 16 16 17 17 17 17 17 16 16 15 15 16 16 16 17 17 17 18 18 18 18 19 20 20 22 22 23 24 25 27 29 31 31 32 33 35 37 39 41 42 44
18 19 19 18 18 19 19 19 19 19 18 18 18 18 18 18 19 19 19 20 21 22 22 23 24 24 26 26 27 29 29 30 32 34 36 37 37 38 40 42 44 46 49
20 21 22 21 20 21 21 22 22 22 22 21 21 21 22 21 22 23 23 23 24 25 26 28 28 29 30 31 32 34 35 36 38 40 41 43 44 45 45 47 48 51 53
22 23 24 25 24 24 25 25 25 25 25 25 25 25 25 26 26 26 26 27 28 29 29 31 33 34 36 36 37 39 41 42 44 45 47 48 50 51 52 53 54 55 57
25 24 26 28 27 28 29 29 29 29 29 29 29 29 29 30 30 31 30 31 32 32 33 35 36 37 39 40 42 44 45 47 49 50 52 53 55 56 58 59 60 61 62
27 27 28 30 30 31 32 33 33 34 34 34 35 35 33 33 35 35 34 34 35 36 37 38 39 41 43 45 46 48 49 51 53 55 57 58 60 61 63 64 65 66 66
31 31 31 32 33 34 36 37 37 38 39 39 39 40 38 37 37 37 37 36 36 38 40 41 43 45 47 49 50 52 53 55 57 59 61 63 64 65 66 67 68 68 67
35 33 33 35 35 37 39 40 41 42 43 43 43 42 41 39 38 38 39 39 39 42 43 45 47 48 50 53 54 56 57 59 61 63 64 66 67 68 68 68 69 68 67
38 35 35 36 37 39 41 43 44 44 44 45 45 45 43 40 38 40 39 40 42 44 46 47 49 50 53 55 57 59 59 59 60 63 66 68 68 68 69 70 70 69 67
38 37 36 37 38 40 42 44 46 47 47 46 47 46 44 42 42 42 41 43 45 46 46 48 50 52 54 56 57 58 60 61 62 62 64 66 67 68 69 69 68 66 63
38 37 37 37 39 41 43 45 47 48 48 47 47 46 45 43 42 43 43 44 46 47 49 51 53 55 56 56 58 59 61 62 62 62 63 65 67 68 69 68 66 63 60
36 36 36 38 40 41 43 44 46 47 47 47 47 46 46 45 44 44 45 46 47 49 51 54 56 56 56 57 59 59 61 62 64 64 65 66 68 68 68 66 63 62 60

GEFSSE_500_meanwind_042.txt.gz
Wind_Speed
13 12 12 12 13 14 15 16 17 18 18 19 19 19 19 18 18 18 18 18 18 18 18 18 18 18 17 17 17 17 17 17 17 17 17 17 18 18 18 18 18 18 18
12 12 11 11 12 12 13 14 15 16 16 18 19 19 20 20 20 20 20 20 20 20 20 20 20 19 19 19 19 19 19 19 19 19 19 19 19 19 20 20 20 20 20
11 10 9 9 9 9 10 10 11 12 13 14 15 17 18 19 19 19 20 20 20 20 20 21 21 21 21 21 21 20 20 20 20 20 20 20 20 20 21 21 21 21 21
8 7 6 6 6 6 7 7 8 9 10 11 12 13 15 16 17 18 19 19 20 20 21 21 21 21 21 21 21 21 21 20 20 20 20 20 21 21 21 21 21 22 22
6 5 5 5 5 6 6 7 8 8 8 9 10 11 12 14 15 17 18 19 19 20 20 20 21 21 21 21 21 21 20 19 19 19 20 21 20 20 20 20 21 21 21
5 5 4 4 5 5 6 6 6 7 8 8 9 10 11 12 13 15 16 17 18 19 19 19 20 20 20 20 20 20 19 18 17 17 19 20 20 19 19 18 19 19 19
6 5 5 5 5 5 5 6 6 7 7 8 9 9 10 11 12 13 14 15 16 17 18 18 18 18 19 19 19 20 19 18 16 16 18 19 19 18 17 17 17 18 18
7 6 6 6 5 5 6 6 6 7 7 8 9 9 10 11 12 12 13 14 15 16 17 17 17 17 18 19 19 20 19 18 16 17 18 19 19 18 18 18 18 18 19
7 7 7 6 6 6 6 6 7 7 7 8 9 10 10 11 12 12 13 14 15 16 17 17 17 18 18 19 20 21 20 19 18 18 19 20 20 20 20 19 19 19 20
8 7 7 6 6 6 6 7 7 8 8 8 9 10 11 11 12 13 14 15 16 16 16 17 18 18 19 20 21 22 21 20 20 20 20 21 21 21 21 21 21 21 21
9 8 7 7 7 7 7 7 7 8 8 9 9 10 10 11 12 13 14 14 15 16 16 17 18 19 20 21 22 22 22 22 21 21 21 22 22 23 23 23 23 24 24
10 9 8 8 8 7 7 8 8 8 9 9 9 10 11 11 12 12 13 14 14 15 16 17 18 18 19 20 21 22 22 22 22 22 22 23 24 24 25 25 26 26 27
10 10 10 10 9 8 8 9 9 9 9 10 10 10 11 12 12 13 13 14 15 15 15 16 17 18 19 20 21 22 23 23 23 23 24 24 25 26 27 28 29 29 30
9 10 10 10 11 11 10 10 10 10 11 11 11 12 12 13 14 15 15 16 16 16 16 16 17 18 20 21 22 23 24 25 26 26 27 28 29 30 30 31 32 32 33
12 11 10 11 12 12 12 13 12 12 12 12 13 13 14 15 16 17 17 17 18 19 19 19 20 20 21 22 24 26 27 29 29 30 31 32 33 34 35 36 37 37 38
15 12 12 12 13 13 14 14 14 14 14 14 15 15 16 17 18 19 20 21 21 21 22 23 24 25 25 26 27 29 31 32 33 35 36 37 38 39 40 41 42 43 44
20 17 13 15 16 17 17 16 17 16 16 17 17 18 19 19 20 22 23 24 25 26 26 27 28 29 30 30 31 32 33 35 37 39 40 41 43 43 44 46 47 48 49
23 21 20 20 21 22 22 21 20 20 19 20 20 21 22 23 24 25 26 27 29 29 30 31 32 33 34 35 35 36 37 38 40 42 43 45 46 48 49 50 52 53 54
26 25 24 25 26 27 27 26 26 25 24 24 24 25 26 27 29 29 29 30 32 33 34 34 35 36 37 38 39 40 41 42 44 46 47 49 50 51 52 54 56 57 59
30 30 29 28 30 32 33 32 31 31 30 29 29 30 31 31 32 33 34 35 36 36 37 37 37 38 38 39 41 42 44 46 47 49 50 51 53 54 56 58 59 60 61
34 33 32 32 34 36 36 35 35 35 34 34 33 34 35 35 36 37 38 38 38 38 38 39 39 40 40 41 42 44 46 48 49 50 51 53 54 56 58 60 61 62 63
35 35 35 36 38 39 38 36 37 38 37 36 36 36 38 39 40 39 40 40 40 40 40 40 41 42 43 43 44 45 47 48 50 52 53 55 57 59 60 61 62 63 64
36 36 37 39 41 42 41 39 38 38 38 38 38 38 40 40 41 41 41 40 41 41 41 42 42 43 45 46 47 48 49 50 52 54 57 59 60 60 61 62 63 64 65
36 37 38 41 42 41 40 40 41 39 39 39 39 40 41 41 41 42 41 42 43 43 44 44 45 45 46 49 50 51 53 54 55 56 58 60 61 62 62 63 64 66 66
36 38 40 43 42 40 41 41 39 39 39 40 40 41 42 42 42 43 43 45 45 46 46 47 47 48 49 50 52 54 56 57 59 60 60 60 61 62 63 64 66 68 69
38 40 42 44 43 42 42 40 39 39 39 41 41 42 43 43 44 44 45 46 46 47 48 49 50 50 52 54 56 57 59 61 63 63 62 61 61 63 65 66 68 70 71

GEFSSE_500_meanwind_048.txt.gz
Wind_Speed
7 8 8 9 9 9 9 9 10 10 10 10 11 11 13 14 14 14 14 14 14 14 15 15 16 16 16 17 17 16 16 16 16 16 16 16 16 16 16 16 16 16 16
6 7 8 8 8 8 7 7 7 8 8 9 9 10 11 12 14 14 15 15 15 16 16 17 17 17 18 18 18 17 17 17 17 17 17 17 17 17 16 17 17 17 18
6 6 7 7 6 6 5 5 5 6 6 7 8 8 9 10 11 13 14 15 15 16 16 17 17 18 18 18 18 18 18 18 18 18 18 18 18 18 17 18 18 18 19
6 6 6 6 5 5 4 4 5 5 5 6 6 7 8 9 9 11 12 13 14 15 16 16 17 17 17 18 18 18 19 19 18 19 19 19 19 19 18 18 19 19 19
6 6 6 6 5 5 4 4 4 4 4 5 6 6 7 7 8 9 10 11 12 13 14 15 16 16 17 17 17 18 18 18 18 19 19 19 19 19 19 19 19 19 18
6 5 5 5 5 4 4 4 4 4 4 4 5 5 6 7 7 8 9 10 11 12 13 14 15 16 16 16 16 16 17 17 18 18 19 19 19 19 18 18 18 18 18
6 6 6 6 5 5 5 5 4 3 3 4 4 5 5 6 7 7 8 9 11 12 13 14 15 15 15 15 15 15 15 16 17 18 19 19 19 19 18 18 18 18 18
7 7 7 7 7 7 6 6 5 4 4 4 4 4 5 5 6 7 8 9 10 11 13 14 15 15 15 15 15 15 15 16 17 18 19 19 19 19 19 19 19 18 18
8 8 8 9 9 8 8 7 6 6 5 5 5 5 5 5 6 7 8 9 10 11 13 14 15 15 15 15 15 15 15 16 17 18 19 19 20 20 20 20 20 20 20
10 11 11 12 11 10 10 9 8 7 6 6 6 5 5 5 6 7 8 9 10 11 12 14 15 15 16 16 16 16 17 17 17 18 19 20 21 21 22 22 22 22 22
11 12 13 13 13 12 11 10 9 8 7 6 6 6 6 6 6 7 8 8 10 11 12 13 14 15 16 16 16 17 17 18 18 19 20 20 21 22 22 23 23 23 24
11 13 14 14 13 13 12 11 10 9 8 7 7 7 7 7 7 7 8 9 10 11 12 13 14 15 15 16 17 18 18 18 19 20 21 22 22 23 24 24 25 25 26
12 14 14 14 14 14 13 12 11 10 9 9 8 8 8 8 8 8 9 9 10 11 12 14 14 15 16 17 18 19 19 20 20 21 22 23 24 25 26 27 28 29 29
14 15 15 15 15 14 14 13 13 12 11 11 11 11 10 10 10 10 10 11 12 13 14 15 16 17 18 19 20 21 22 22 23 24 25 25 26 27 28 29 31 32 33
14 15 16 16 17 16 16 15 14 13 13 13 13 13 13 13 13 13 13 14 15 16 17 18 19 20 21 22 23 24 25 26 27 28 28 29 29 30 31 32 34 35 36
14 15 17 18 19 19 18 17 17 16 15 15 15 15 15 15 16 16 17 17 18 19 20 21 22 24 25 26 26 27 28 29 30 32 33 33 34 35 35 36 37 38 39
15 15 17 19 20 21 21 20 20 19 19 19 19 18 18 19 19 20 20 21 22 23 24 25 26 27 28 29 30 30 31 32 34 35 36 37 38 39 39 40 41 42 43
16 17 20 21 22 23 23 23 22 22 23 24 23 22 22 22 23 23 24 24 26 27 28 29 29 29 30 31 32 34 34 35 36 38 39 40 41 42 42 43 44 44 45
18 20 22 23 24 25 25 25 24 25 26 26 26 25 25 25 25 26 27 28 29 30 30 31 31 31 31 33 34 35 37 38 39 40 41 42 43 44 45 46 47 47 48
19 21 22 24 26 27 28 29 29 29 28 29 28 27 28 27 28 28 29 30 30 30 30 31 31 32 32 34 35 37 39 40 40 41 43 45 46 47 48 49 51 52 52
21 21 23 25 28 29 31 32 33 32 31 30 29 28 28 29 29 29 30 30 30 31 32 32 32 33 34 36 38 40 41 42 43 44 46 47 49 50 51 53 54 55 56
22 23 25 27 29 32 34 35 35 35 34 33 31 27 27 28 28 28 29 30 31 32 33 35 36 36 38 39 40 42 43 44 46 47 48 49 51 52 54 55 57 58 59
24 26 27 30 32 35 36 37 38 36 34 34 29 27 27 27 28 29 29 29 32 34 35 37 38 39 41 42 42 44 45 46 47 48 50 51 53 55 57 59 60 61 62
27 29 31 33 36 37 37 38 40 38 37 35 31 29 28 28 28 29 30 33 34 36 38 39 41 43 44 45 46 47 48 49 50 51 52 54 56 58 60 61 63 64 65
31 32 34 36 38 38 39 40 41 40 39 35 32 31 30 30 31 32 33 35 37 39 41 43 45 47 48 49 50 51 52 53 55 55 56 57 59 61 63 65 66 67 68
34 35 38 39 41 41 43 43 42 41 38 37 36 35 33 34 35 35 37 39 41 43 46 48 49 50 51 53 54 55 57 58 59 60 61 61 62 63 65 67 68 68 69

GEFSSE_500_meanwind_054.txt.gz
Wind_Speed
4 4 4 4 4 5 6 7 8 10 10 10 10 9 9 9 9 9 9 9 8 8 7 7 6 7 7 8 8 9 9 10 10 10 11 11 11 12 12 13 13 14 14
2 3 2 2 2 3 3 5 6 7 8 8 8 7 7 7 8 8 8 9 8 8 8 7 7 8 8 8 9 10 10 11 11 11 12 12 12 13 13 13 14 15 15
0 1 1 1 0 0 1 2 4 4 5 6 6 6 6 6 6 7 7 8 8 8 8 8 8 8 8 9 10 10 11 11 12 12 13 13 14 14 14 15 15 16 16
2 2 2 2 2 2 1 0 2 3 3 4 4 5 5 5 6 6 6 7 7 7 7 7 8 8 9 10 10 11 12 12 13 13 14 14 14 15 15 15 16 16 17
4 4 4 4 3 2 2 1 1 2 2 3 4 5 5 5 5 5 6 6 6 6 7 7 8 8 9 10 11 11 12 12 13 14 14 15 15 15 15 15 16 16 16
4 5 5 5 4 3 2 2 1 2 2 3 4 5 5 6 6 6 6 6 7 7 7 7 8 9 9 10 11 11 12 12 13 13 14 15 15 15 15 15 15 16 16
5 6 6 6 5 4 3 3 2 2 3 4 5 6 6 7 7 7 7 7 7 7 8 8 9 9 10 10 11 11 11 12 13 13 14 15 15 15 15 15 15 16 16
7 7 7 6 6 5 4 3 3 3 3 4 5 6 7 7 8 8 8 8 9 8 8 9 9 10 10 11 11 12 12 13 13 14 14 15 16 16 16 16 16 16 16
8 8 8 7 6 6 5 4 3 3 3 4 5 6 7 8 8 9 9 9 10 10 10 10 10 11 11 12 12 12 13 13 14 14 15 15 16 16 16 16 16 17 17
7 7 7 6 6 6 5 5 4 4 4 4 5 6 7 8 9 10 10 10 10 10 10 11 11 11 12 12 13 13 14 14 14 15 15 15 16 16 17 17 17 17 18
5 5 5 5 5 6 5 5 5 5 5 5 6 7 8 9 10 11 11 12 12 11 12 12 12 12 13 13 14 14 15 15 15 16 17 17 18 18 18 19 19 19 20
2 3 3 4 5 5 5 6 6 6 7 7 8 8 9 10 11 12 12 13 13 13 13 13 13 14 14 15 15 16 16 17 17 18 18 19 19 19 20 20 21 21 21
1 2 3 4 6 6 7 7 8 8 8 9 10 10 11 12 13 14 14 15 15 15 15 15 15 15 16 16 17 17 18 18 19 20 20 21 21 22 22 22 23 24 24
2 4 5 6 7 8 9 10 10 10 11 11 12 12 13 14 15 16 16 17 17 17 18 18 18 18 18 19 19 20 20 21 22 22 23 24 24 25 26 26 27 27 28
5 6 7 8 10 10 11 12 12 13 14 14 15 16 16 17 18 19 19 20 21 21 21 21 21 21 21 22 23 23 24 24 25 25 26 26 27 27 29 30 31 31 32
8 9 10 11 12 13 14 14 15 15 15 16 18 19 20 21 22 23 23 24 24 24 24 24 24 24 25 25 26 26 27 27 28 28 28 29 30 30 31 32 34 35 35
11 11 12 13 14 15 16 16 17 17 18 19 21 22 24 25 26 27 27 28 28 28 28 28 27 27 27 27 28 28 29 29 29 29 30 31 33 33 34 35 36 37 38
15 15 15 15 17 18 18 19 19 20 21 22 24 25 27 28 29 30 31 32 32 32 32 31 30 29 29 29 30 30 30 30 29 30 31 33 35 36 37 37 38 40 41
19 19 19 19 19 20 21 23 23 24 25 27 29 29 29 31 32 32 33 34 35 35 35 34 33 31 29 28 28 29 29 29 30 31 33 34 36 38 39 39 41 42 43
23 23 23 22 22 23 24 26 26 28 30 32 32 31 31 33 34 34 33 34 33 33 32 32 31 28 28 28 28 27 28 30 32 33 34 36 37 39 41 42 43 44 46
27 27 27 26 25 26 27 28 30 32 34 36 35 35 33 33 33 31 31 31 30 31 29 28 28 28 28 27 28 29 30 32 34 36 37 39 40 42 43 44 46 47 49
30 30 30 29 29 30 31 32 33 36 37 38 38 36 35 33 31 27 26 27 27 27 27 27 25 25 25 27 29 31 34 35 36 38 39 41 43 44 46 47 48 50 52
31 32 32 31 31 33 34 35 35 37 39 41 41 39 37 33 28 26 26 25 25 25 27 27 27 27 29 30 32 36 38 40 41 41 42 45 47 48 50 52 53 55 57
32 32 33 33 33 35 36 36 37 39 41 42 42 40 37 31 29 26 24 24 24 25 27 29 30 31 33 35 37 40 42 44 46 48 49 50 52 54 55 57 59 60 61
33 33 34 35 35 36 37 38 39 41 42 42 41 39 35 32 29 29 29 27 27 28 30 32 33 35 37 39 42 45 47 49 50 52 55 56 57 58 60 61 63 64 65
35 35 36 37 38 39 39 40 41 42 42 42 40 39 38 34 32 32 31 31 31 33 34 36 38 40 42 45 47 49 51 53 54 56 58 60 61 62 63 65 66 67 68